Weather observations for the past three days for
Columbus, Ohio State University Airport
Imperial (Metric)
Date Time (edt) Wind (mph) Vis. (mi.) Weather Sky Cond. Temperature (ºF) Relative Humidity Wind Chill (°F) Heat Index (°F) Pressure Precipitation (in)
Air Dwpt 6 hour altimeter (in) sea level (mb) 1 hr 3 hr 6 hr
Max. Min.
17 05:53 SW 5 10.00 Fair CLR 75.9 68 77% 77 29.89 1011.2
17 04:53 W 5 10.00 Fair CLR 75 68 79% 76 29.86 1010.1
17 03:53 W 3 10.00 Fair CLR 75 68 79% 76 29.86 1010.3
17 02:53 W 3 10.00 A Few Clouds FEW080 75.9 68 77% 77 29.87 1010.6
17 01:53 W 6 10.00 Mostly Cloudy BKN050 BKN065 78.1 68 82.9 75.9 71% 80 29.88 1010.9
17 00:53 W 7 10.00 Overcast OVC045 80.1 68 67% 83 29.89 1011.0
16 23:53 W 5 10.00 Overcast OVC042 78.1 69.1 74% 80 29.89 1011.1
16 22:53 W 5 10.00 A Few Clouds FEW042 78.1 68 71% 80 29.89 1011.2
16 21:53 W 3 10.00 Fair CLR 78.1 68 71% 80 29.88 1010.9
16 20:53 W 6 10.00 Fair CLR 80.1 69.1 69% 83 29.86 1010.4
16 19:53 NW 5 10.00 Partly Cloudy FEW045 SCT060 80.1 71.1 91 79 74% 84 29.87 1010.5
16 18:53 W 12 G 18 10.00 Mostly Cloudy SCT055 BKN075 88 68 52% 92 29.85 1009.8
16 17:53 SW 12 G 23 10.00 Overcast FEW048 BKN065 OVC095 88 68 52% 92 29.86 1010.1
16 16:53 SW 10 10.00 Partly Cloudy FEW045 FEW060 SCT075 89.1 66.9 48% 92 29.87 1010.5
16 15:53 S 10 G 18 10.00 Mostly Cloudy SCT049 BKN090 91 66.9 45% 94 29.86 1010.1
16 14:53 SW 9 10.00 Mostly Cloudy SCT049 BKN090 90 66 45% 93 29.87 1010.5
16 13:53 SW 7 10.00 Partly Cloudy FEW044 SCT075 88 66 90 80.1 48% 90 29.88 1011.0
16 12:53 SW 8 G 17 10.00 A Few Clouds FEW043 87.1 64.9 48% 89 29.9 1011.4
16 11:53 S 9 G 16 10.00 Fair CLR 84.9 64.9 51% 87 29.9 1011.3
16 10:53 S 5 10.00 Fair CLR 81 64 57% 83 29.88 1011.0
16 09:53 SW 7 10.00 Fair CLR 81 64 57% 83 29.88 1011.0
16 08:53 W 10 10.00 Fair CLR 81 63 54% 82 29.87 1010.3
16 07:53 SW 9 10.00 Fair CLR 80.1 63 82 78.1 56% 81 29.84 1009.5
16 06:53 W 15 G 22 10.00 Fair CLR 78.1 61 56% 80 29.81 1008.4
16 05:53 SW 14 G 31 10.00 Fair CLR 80.1 61 52% 81 29.74 1006.2
16 04:53 W 12 G 23 10.00 Fair CLR 81 63 54% 82 29.78 1007.3
16 03:53 SW 16 G 28 10.00 Fair CLR 81 70 69% 84 29.82 1008.7
16 02:53 SW 15 G 23 10.00 Mostly Cloudy BKN060 81 69.1 67% 84 29.85 1009.6
16 01:53 SW 13 G 22 10.00 A Few Clouds FEW060 82 68 84 77 63% 85 29.85 1009.6
16 00:53 SW 6 10.00 Overcast SCT042 OVC060 79 69.1 72% 82 29.86 1010.1
15 23:53 S 6 10.00 Partly Cloudy SCT055 78.1 69.1 74% 80 29.86 1010.0
15 22:53 S 3 10.00 Fair CLR 78.1 70 76% 80 29.86 1010.1
15 21:53 S 7 10.00 Fair CLR 80.1 70 71% 83 29.84 1009.7
15 20:53 S 7 10.00 Partly Cloudy FEW048 SCT060 82 69.1 65% 85 29.85 1009.9
15 19:53 SW 8 10.00 A Few Clouds FEW060 84.9 68 95 80.1 57% 88 29.86 1010.3 0.02
15 18:53 W 8 10.00 Fair CLR 86 66.9 53% 89 29.87 1010.5
15 17:53 SW 9 10.00 Fair CLR 82 66 58% 84 29.87 1010.6
15 16:53 SW 10 G 20 10.00 Thunderstorm in Vicinity FEW039 BKN050 BKN060 89.1 71.1 55% 95 29.89 1011.2 0.02 0.02
15 15:53 W 12 G 24 10.00 Partly Cloudy FEW070 SCT080 SCT100 93 69.1 46% 98 29.9 1011.6
15 14:53 W 13 G 22 10.00 A Few Clouds FEW065 FEW110 93.9 66 40% 97 29.92 1012.2
15 13:53 W 14 G 23 10.00 A Few Clouds FEW060 91 64 91.9 75.9 41% 93 29.94 1012.9
15 12:53 W 10 10.00 Fair CLR 89.1 66.9 48% 92 29.95 1013.4
15 11:53 SW 12 G 21 10.00 Fair CLR 84.9 69.1 59% 89 29.96 1013.8
15 10:53 SW 8 10.00 Partly Cloudy SCT110 81 70 69% 84 29.96 1013.7
15 09:53 S 10 10.00 Fair CLR 82 71.1 69% 86 29.94 1013.1
15 08:53 S 8 10.00 Fair CLR 81 71.1 72% 85 29.95 1013.3
15 07:53 SW 5 10.00 A Few Clouds FEW021 75.9 69.1 75.9 73 79% 77 29.97 1014.1
15 06:53 S 8 10.00 Overcast OVC120 73.9 68 82% 29.97 1014.1
15 05:53 S 8 10.00 Partly Cloudy SCT120 73 68 84% 29.97 1014.0
15 04:53 S 6 10.00 Fair CLR 73 66.9 81% 29.96 1013.8
15 03:53 S 8 10.00 Light Rain CLR 73 66.9 81% 29.96 1013.7
15 02:53 S 7 10.00 Fair CLR 73 66.9 81% 29.98 1014.1
15 01:53 S 6 10.00 Fair CLR 73 66.9 75.9 73 81% 30 1014.9
15 00:53 S 6 10.00 Fair CLR 73 68 84% 29.99 1014.6
14 23:53 S 6 10.00 Fair CLR 73.9 68 82% 29.98 1014.2
14 22:53 S 6 10.00 Fair CLR 73.9 66.9 79% 29.99 1014.7
14 21:53 S 6 10.00 Fair CLR 73.9 66.9 79% 30 1015.1
14 20:53 S 5 10.00 Fair CLR 75 66.9 76% 76 30.01 1015.6
14 19:53 S 6 10.00 Fair CLR 75 66.9 93 72 76% 76 30.03 1016.0 0.03
14 18:53 W 6 10.00 Partly Cloudy FEW050 SCT100 73.9 66.9 79% 30 1015.2
14 17:53 W 9 10.00 Light Rain BKN047 BKN070 OVC090 73 66.9 81% 30.01 1015.7 0.01
14 15:53 SW 18 G 33 10.00 Mostly Cloudy FEW050 SCT080 BKN100 91 68 47% 95 30 1015.1
14 14:53 SW 14 G 26 10.00 Mostly Cloudy FEW043 SCT050 BKN100 91 70 50% 97 30.02 1015.7
14 13:53 SW 10 G 21 10.00 Mostly Cloudy SCT045 BKN110 91 70 91.9 77 50% 97 30.05 1016.5
14 12:53 SW 10 G 22 10.00 Mostly Cloudy SCT045 BKN110 90 68 48% 94 30.07 1017.4
14 11:53 W 12 G 21 10.00 Fair CLR 89.1 64.9 45% 91 30.1 1018.3
14 10:53 SW 12 10.00 Fair CLR 88 68 52% 92 30.1 1018.5
14 09:53 SW 8 10.00 Fair CLR 84 66.9 57% 87 30.11 1018.6
14 08:53 SW 6 10.00 Fair CLR 81 68 65% 84 30.11 1018.8
14 07:53 S 3 10.00 Fair CLR 77 66.9 77 69.1 71% 79 30.12 1019.0
Date Time (edt) Wind (mph) Vis. (mi.) Weather Sky Cond. Air Dwpt Max. Min. Relative Humidity Wind Chill (°F) Heat Index (°F) altimeter (in) sea level (mb) 1 hr 3 hr 6 hr
6 hour
Temperature (ºF) Pressure Precipitation (in)